Вернуться в каталог

STARLINK-37047

АктивенСвязьVLEO
NORAD 68957·PAYLOAD·🇺🇸 United States

Запущен May 1, 2026 с Cape Canaveral Space Force Station

Loading…

Ближайшие Пролёты (ближайшие 24 часа)

TLE

СвежийSource: CelesTrak SupGP

Эпоха: Sep 14, 2026, 22:29 UTC

1 68957C 26099G   26257.93729167 -.00008334  00000+0 -24628-3 0  2578
2 68957  53.1576 101.9417 0001261  84.4681  93.9095 15.34388938    16

Отслеживайте STARLINK-37047 в реальном времени с AllMySat

Download on the App Store